Tracking 28125 objects as of 3-Oct-2023
HD Live streaming from Space Station
objects crossing your sky now

SPHERE-1 EYE

Track SPHERE-1 EYE now!
10-day predictions


NORAD ID: 55072
Int'l Code: 2023-001BR
Perigee: 503.4 km
Apogee: 521.7 km
Inclination: 97.5 °
Period: 94.7 minutes
Semi major axis: 6883 km
RCS: Unknown
Launch date: January 3, 2023
Source: Japan (JPN)
Launch site: AIR FORCE EASTERN TEST RANGE (AFETR)
Your satellite tracking list
Your tracking list is empty




NASA's NSSDC Master Catalog

Two Line Element Set (TLE):
1 55072U 23001BR  23276.47409161  .00017737  00000-0  82004-3 0  9999
2 55072  97.4695 335.1485 0013241   0.3068 359.8173 15.20146107 41512
Source of the keplerian elements: AFSPC